Precipitable_Water
0.44 0.36 0.28 0.29 0.36 0.31 0.32 0.29 0.28 0.31 0.41 0.38 0.39 0.39 0.39 0.43 0.43 0.44 0.47 0.47 0.49 0.54 0.57 0.59 0.67 0.76 0.85 0.89 0.95 1.01 1.05 1.11 1.16 1.13 1.06 1.07 1.06 1.19 1.19 1.24 1.30 1.34 1.35 1.34
0.40 0.29 0.32 0.37 0.37 0.32 0.32 0.29 0.27 0.30 0.38 0.40 0.37 0.33 0.36 0.38 0.40 0.42 0.44 0.46 0.49 0.54 0.58 0.59 0.59 0.62 0.73 0.82 0.89 1.01 1.06 1.14 1.19 1.20 1.22 1.17 1.18 1.21 1.25 1.32 1.36 1.41 1.41 1.41
0.31 0.31 0.38 0.37 0.34 0.30 0.31 0.29 0.27 0.25 0.29 0.29 0.26 0.26 0.32 0.39 0.42 0.45 0.49 0.52 0.54 0.54 0.57 0.60 0.61 0.62 0.64 0.65 0.79 0.95 1.06 1.15 1.21 1.23 1.24 1.24 1.26 1.24 1.18 1.25 1.31 1.39 1.46 1.49
0.35 0.37 0.36 0.33 0.30 0.32 0.25 0.33 0.29 0.25 0.23 0.19 0.34 0.18 0.30 0.32 0.36 0.40 0.46 0.53 0.57 0.60 0.63 0.66 0.68 0.63 0.59 0.62 0.68 0.79 0.98 1.07 1.18 1.26 1.17 1.12 1.08 1.04 1.15 1.25 1.32 1.37 1.45 1.48
0.31 0.35 0.32 0.32 0.30 0.36 0.27 0.34 0.28 0.28 0.26 0.28 0.27 0.26 0.23 0.30 0.32 0.36 0.43 0.51 0.57 0.64 0.67 0.69 0.73 0.71 0.73 0.70 0.69 0.83 0.94 1.00 1.11 1.18 1.19 1.16 1.14 1.17 1.26 1.30 1.30 1.36 1.43 1.48
0.40 0.52 0.43 0.37 0.37 0.38 0.39 0.33 0.32 0.34 0.32 0.24 0.24 0.26 0.20 0.25 0.30 0.36 0.40 0.44 0.53 0.60 0.65 0.68 0.76 0.83 0.82 0.89 0.87 0.82 0.88 0.96 1.07 1.16 1.19 1.13 1.12 1.15 1.16 1.20 1.24 1.30 1.36 1.39
0.35 0.41 0.44 0.42 0.35 0.40 0.38 0.31 0.23 0.23 0.25 0.20 0.29 0.26 0.26 0.27 0.31 0.38 0.36 0.43 0.51 0.56 0.59 0.60 0.64 0.70 0.77 0.82 0.89 0.93 0.95 0.94 1.04 1.10 1.16 1.18 1.19 1.21 1.18 1.20 1.23 1.26 1.31 1.35
0.23 0.26 0.38 0.43 0.33 0.31 0.32 0.31 0.22 0.19 0.18 0.20 0.35 0.23 0.23 0.30 0.36 0.42 0.40 0.45 0.49 0.51 0.52 0.52 0.54 0.56 0.60 0.66 0.74 0.81 0.85 0.89 0.99 1.04 1.10 1.19 1.23 1.23 1.23 1.25 1.24 1.25 1.28 1.33
0.24 0.23 0.31 0.44 0.42 0.40 0.34 0.30 0.29 0.29 0.28 0.25 0.24 0.27 0.33 0.32 0.32 0.41 0.40 0.43 0.45 0.45 0.47 0.50 0.53 0.54 0.55 0.56 0.58 0.61 0.64 0.67 0.77 0.86 0.93 0.98 1.10 1.16 1.16 1.25 1.31 1.29 1.35 1.37
0.36 0.27 0.31 0.36 0.43 0.44 0.37 0.36 0.30 0.32 0.21 0.20 0.20 0.22 0.25 0.28 0.31 0.35 0.41 0.43 0.50 0.45 0.45 0.48 0.50 0.51 0.53 0.55 0.57 0.59 0.58 0.56 0.58 0.62 0.70 0.77 0.85 0.96 1.07 1.16 1.15 1.21 1.29 1.36
0.43 0.35 0.29 0.36 0.34 0.27 0.37 0.34 0.33 0.32 0.28 0.20 0.18 0.20 0.33 0.31 0.34 0.38 0.44 0.48 0.48 0.47 0.50 0.54 0.58 0.60 0.59 0.59 0.59 0.60 0.59 0.59 0.59 0.65 0.72 0.77 0.85 0.93 1.04 1.11 1.20 1.18 1.24 1.32
0.43 0.46 0.36 0.34 0.36 0.36 0.36 0.32 0.32 0.26 0.25 0.29 0.25 0.21 0.38 0.38 0.39 0.45 0.49 0.49 0.50 0.55 0.57 0.61 0.64 0.65 0.61 0.58 0.59 0.62 0.66 0.70 0.74 0.76 0.81 0.86 0.92 0.97 1.02 1.12 1.26 1.33 1.27 1.30
0.44 0.42 0.38 0.38 0.37 0.41 0.35 0.35 0.37 0.38 0.33 0.28 0.27 0.23 0.38 0.38 0.41 0.47 0.48 0.48 0.53 0.56 0.60 0.61 0.62 0.62 0.62 0.60 0.61 0.63 0.69 0.76 0.84 0.89 0.92 0.95 0.99 1.03 1.05 1.12 1.24 1.37 1.38 1.37
0.53 0.44 0.40 0.33 0.34 0.34 0.35 0.32 0.32 0.32 0.31 0.26 0.26 0.26 0.34 0.39 0.42 0.49 0.50 0.53 0.57 0.60 0.60 0.63 0.64 0.65 0.65 0.64 0.64 0.67 0.72 0.77 0.80 0.84 0.89 0.95 1.02 1.09 1.13 1.16 1.21 1.28 1.35 1.35
0.54 0.41 0.45 0.40 0.40 0.40 0.38 0.36 0.36 0.34 0.31 0.27 0.27 0.28 0.30 0.39 0.45 0.49 0.52 0.57 0.61 0.60 0.60 0.60 0.62 0.65 0.67 0.67 0.70 0.74 0.77 0.80 0.83 0.83 0.87 0.89 0.94 1.00 1.07 1.12 1.19 1.23 1.29 1.33
0.65 0.45 0.46 0.40 0.40 0.40 0.37 0.40 0.37 0.34 0.35 0.34 0.32 0.32 0.36 0.44 0.51 0.52 0.54 0.59 0.58 0.56 0.57 0.60 0.64 0.67 0.68 0.70 0.71 0.76 0.78 0.81 0.85 0.85 0.85 0.88 0.90 0.95 1.00 1.03 1.04 1.08 1.13 1.17
0.51 0.49 0.48 0.35 0.38 0.41 0.38 0.38 0.38 0.37 0.37 0.37 0.33 0.34 0.40 0.43 0.47 0.52 0.58 0.60 0.58 0.57 0.59 0.60 0.63 0.68 0.71 0.73 0.76 0.75 0.77 0.80 0.77 0.80 0.86 0.88 0.90 0.89 0.89 0.95 0.98 1.00 1.02 1.05
0.44 0.47 0.50 0.41 0.47 0.32 0.38 0.52 0.47 0.43 0.43 0.44 0.41 0.41 0.44 0.49 0.53 0.57 0.61 0.59 0.58 0.59 0.61 0.65 0.70 0.74 0.76 0.78 0.78 0.80 0.76 0.75 0.74 0.73 0.76 0.79 0.85 0.89 0.87 0.85 0.83 0.83 0.84 0.84
0.41 0.47 0.44 0.38 0.40 0.44 0.41 0.42 0.46 0.45 0.42 0.48 0.44 0.46 0.49 0.55 0.59 0.58 0.63 0.65 0.63 0.66 0.70 0.73 0.77 0.76 0.76 0.76 0.77 0.76 0.74 0.74 0.72 0.73 0.75 0.76 0.78 0.81 0.92 0.81 0.80 0.79 0.78 0.78
0.36 0.49 0.46 0.43 0.34 0.26 0.33 0.52 0.59 0.56 0.38 0.50 0.53 0.52 0.54 0.58 0.48 0.52 0.63 0.67 0.70 0.73 0.75 0.76 0.75 0.75 0.74 0.75 0.78 0.76 0.74 0.73 0.71 0.72 0.73 0.75 0.73 0.70 0.69 0.71 0.70 0.68 0.70 0.67
0.40 0.42 0.37 0.35 0.31 0.29 0.39 0.52 0.59 0.41 0.33 0.54 0.54 0.56 0.58 0.57 0.61 0.67 0.71 0.71 0.73 0.75 0.75 0.75 0.73 0.72 0.73 0.77 0.78 0.74 0.72 0.72 0.76 0.76 0.73 0.72 0.68 0.63 0.62 0.63 0.63 0.60 0.59 0.57
0.41 0.38 0.35 0.34 0.27 0.21 0.46 0.50 0.42 0.46 0.60 0.59 0.60 0.63 0.62 0.67 0.67 0.70 0.72 0.73 0.75 0.74 0.74 0.74 0.72 0.73 0.77 0.78 0.76 0.71 0.69 0.72 0.70 0.66 0.61 0.58 0.54 0.52 0.51 0.52 0.53 0.53 0.52 0.49
0.36 0.43 0.34 0.34 0.26 0.46 0.60 0.56 0.61 0.63 0.60 0.63 0.63 0.67 0.66 0.65 0.64 0.67 0.69 0.72 0.72 0.72 0.73 0.75 0.76 0.75 0.75 0.72 0.69 0.64 0.63 0.62 0.57 0.53 0.50 0.49 0.49 0.49 0.49 0.47 0.46 0.46 0.46 0.44
0.43 0.59 0.43 0.40 0.41 0.51 0.57 0.64 0.66 0.66 0.62 0.65 0.68 0.71 0.69 0.64 0.68 0.69 0.72 0.72 0.72 0.74 0.75 0.77 0.75 0.71 0.67 0.66 0.62 0.55 0.51 0.49 0.47 0.45 0.44 0.45 0.44 0.44 0.45 0.45 0.45 0.43 0.42 0.42
0.48 0.56 0.45 0.42 0.52 0.57 0.60 0.63 0.64 0.66 0.68 0.69 0.70 0.68 0.68 0.70 0.70 0.71 0.74 0.75 0.76 0.77 0.76 0.75 0.70 0.64 0.58 0.55 0.50 0.48 0.46 0.45 0.42 0.41 0.41 0.41 0.41 0.40 0.40 0.41 0.40 0.39 0.41 0.40
0.50 0.52 0.43 0.38 0.54 0.47 0.49 0.62 0.68 0.64 0.65 0.71 0.70 0.70 0.74 0.75 0.73 0.77 0.76 0.79 0.78 0.74 0.71 0.66 0.61 0.57 0.52 0.48 0.45 0.44 0.44 0.42 0.39 0.37 0.37 0.36 0.36 0.35 0.35 0.34 0.34 0.39 0.38 0.38
Wind_Speed
27 26 26 24 23 23 20 20 20 19 18 17 15 18 18 17 16 17 17 18 19 18 16 16 17 18 19 21 23 23 24 26 26 27 27 28 28 26 25 26 26 25 26 25
28 32 29 26 25 25 23 22 23 20 17 15 18 21 20 12 11 11 13 13 13 14 14 14 17 19 21 21 23 24 25 25 26 27 28 29 29 29 28 27 27 28 28 28
35 28 26 28 28 26 26 26 24 23 21 23 21 21 12 10 9 8 9 9 9 10 12 13 16 20 22 24 25 25 25 25 26 26 26 28 30 29 29 29 29 29 30 31
35 34 28 26 27 26 28 24 24 23 20 18 14 16 15 13 11 9 8 6 6 6 6 8 10 13 16 19 21 24 25 25 25 25 25 25 26 27 28 29 30 30 32 32
38 33 34 34 31 26 26 22 22 22 23 22 22 18 16 14 14 11 8 7 6 6 7 7 8 8 9 11 14 17 20 21 23 24 24 24 25 27 28 30 31 32 33 35
40 31 32 33 30 30 22 23 21 21 21 24 25 22 20 18 19 14 11 9 8 8 8 7 8 7 6 6 7 9 11 15 19 22 24 26 27 28 29 31 33 34 35 36
43 42 36 31 29 26 28 23 19 21 21 24 18 22 25 15 16 16 13 11 10 9 7 7 7 8 8 7 8 9 11 14 17 19 22 25 27 29 31 32 33 34 34 35
41 41 43 37 40 29 31 28 24 23 23 23 18 22 20 21 20 18 15 13 12 10 10 9 9 9 10 11 12 14 15 17 20 22 25 27 30 31 33 34 35 35 35 35
39 44 39 39 40 37 30 32 34 30 32 26 29 29 27 23 19 22 19 17 15 13 12 12 12 13 14 14 15 17 18 21 23 25 27 30 32 34 35 36 36 36 36 35
45 43 39 37 35 39 41 29 27 28 28 30 28 29 27 24 24 24 23 20 19 16 15 15 16 17 18 19 20 21 23 24 26 28 29 32 34 35 36 36 36 36 35 35
38 41 44 34 37 40 33 37 32 29 30 28 29 28 25 27 24 24 24 21 20 18 17 17 18 19 20 22 23 24 26 27 29 31 33 35 36 38 39 38 37 35 35 35
40 35 39 47 38 37 39 40 41 32 32 26 29 34 22 23 23 22 23 22 20 19 18 19 20 21 23 24 24 25 27 28 30 31 33 35 35 36 37 37 37 36 36 36
36 35 33 37 41 40 36 43 39 41 33 31 31 32 22 21 21 21 21 21 20 19 19 20 22 23 23 24 25 27 28 29 30 31 32 33 33 33 33 35 36 36 37 37
32 33 35 36 38 39 36 40 42 40 33 37 36 38 29 24 23 22 21 22 21 21 22 23 24 24 25 25 26 27 28 29 29 30 30 30 29 29 29 30 31 33 35 37
29 36 35 40 43 39 39 39 39 39 42 39 39 37 36 31 26 26 24 23 23 24 23 24 24 25 25 26 27 28 29 30 30 30 30 30 28 26 25 25 26 28 29 32
23 28 37 42 42 41 41 39 40 42 42 41 42 38 34 29 24 24 25 24 24 23 23 23 24 24 26 27 29 30 31 32 32 32 32 31 29 28 27 26 26 27 28 30
28 27 27 42 43 39 35 44 42 38 37 37 37 38 32 30 29 28 26 24 23 23 24 24 25 26 28 30 31 32 33 34 35 35 34 32 31 29 29 28 28 28 29 30
37 31 30 26 30 36 37 30 39 41 40 37 36 32 29 28 24 23 24 24 24 24 24 26 27 28 30 31 33 34 34 35 35 34 33 33 32 31 29 29 29 30 31 32
46 39 26 27 23 25 33 35 31 34 36 37 35 31 25 23 22 23 24 24 24 25 24 25 27 29 30 32 33 33 34 34 33 32 31 30 30 30 32 31 32 34 35 36
46 47 37 25 25 28 32 28 26 26 34 35 33 30 26 24 25 24 23 22 22 23 25 26 28 30 31 33 32 32 33 32 31 30 29 28 28 28 29 32 34 35 35 36
40 43 42 37 33 36 33 24 25 27 27 26 29 27 24 25 24 20 21 22 23 24 24 26 27 29 30 31 30 31 31 30 29 29 28 27 28 28 29 31 32 33 34 35
29 32 35 34 32 38 30 31 32 28 21 20 20 25 24 20 20 22 22 23 23 24 26 27 27 28 28 28 29 29 27 27 27 27 26 27 28 29 30 31 32 33 34 35
31 37 39 35 35 18 22 26 24 25 23 21 20 20 21 19 19 20 21 22 23 24 26 26 27 26 27 27 25 24 25 25 26 27 28 29 30 31 32 33 33 34 34 34
36 39 38 33 36 33 29 18 17 17 16 18 19 21 20 18 19 20 21 22 23 25 25 23 23 23 23 23 22 23 26 27 28 28 29 31 31 32 33 33 33 34 34 36
29 35 37 37 26 24 24 22 18 16 16 18 19 19 19 18 19 20 21 23 23 21 20 20 21 21 21 22 24 25 27 28 28 29 30 32 32 33 33 34 35 36 37 38
29 32 33 33 30 27 24 23 21 19 18 19 19 18 18 19 20 20 19 18 18 18 19 18 18 19 21 23 24 26 27 28 29 30 32 33 34 35 36 37 38 38 38 38
Wind_Direction
239 243 243 247 247 257 263 266 270 276 276 282 279 288 294 294 287 279 274 272 266 261 267 257 250 248 248 247 246 247 249 247 248 249 250 252 253 255 255 254 254 255 256 257
240 244 247 250 249 252 253 260 267 274 272 269 280 289 291 291 291 285 286 283 274 263 263 260 255 255 253 251 249 250 250 250 250 252 254 253 254 255 255 255 256 256 258 259
241 247 247 241 245 250 251 254 262 267 275 274 276 280 261 273 282 292 292 293 287 278 273 271 266 264 259 257 253 251 252 253 250 253 257 255 253 255 253 254 256 258 259 260
246 244 239 243 247 246 251 251 255 265 266 267 264 271 265 266 264 278 289 290 295 297 298 295 292 284 270 262 254 254 255 254 249 251 256 255 253 252 253 257 259 260 262 263
241 243 241 243 245 243 246 250 255 259 261 266 256 263 264 256 255 257 272 274 280 292 304 312 321 319 300 269 260 258 255 249 248 251 255 257 256 257 259 261 262 264 265 266
244 243 240 243 246 241 251 247 252 255 258 257 258 253 259 253 252 247 254 263 268 279 290 298 306 312 316 292 276 266 255 251 255 256 257 258 260 262 264 264 266 267 268 268
241 240 241 242 240 239 237 240 252 252 245 258 262 253 254 264 253 239 245 253 259 268 281 293 305 310 308 301 288 281 273 269 266 263 263 264 265 266 267 268 268 268 269 269
239 239 236 238 239 240 236 236 244 253 255 261 251 254 259 256 246 243 247 248 248 256 269 279 292 299 302 298 291 287 283 280 276 274 272 271 270 270 271 271 270 270 270 270
243 242 243 238 239 235 238 239 247 257 257 259 258 259 262 255 249 240 242 242 242 252 263 274 284 291 293 298 297 294 291 287 284 281 279 278 275 274 273 273 272 270 269 270
242 249 244 240 239 236 236 248 239 238 248 248 255 257 258 252 248 237 235 240 244 253 262 272 281 289 292 293 293 294 294 291 290 288 285 283 281 278 275 273 273 268 268 268
240 242 246 240 233 233 232 235 239 244 243 250 258 261 257 258 255 239 232 238 247 254 259 270 279 286 292 294 296 297 297 295 292 291 290 289 284 279 275 272 270 269 268 268
240 241 245 240 241 242 235 234 234 239 237 247 255 260 261 262 260 247 235 238 246 249 259 271 279 286 291 294 297 300 301 301 298 295 295 294 290 286 278 272 268 267 268 268
239 238 240 245 244 237 238 236 239 238 248 248 248 256 257 256 253 246 234 237 241 248 262 272 280 286 290 293 297 300 303 304 304 302 300 299 294 291 284 275 270 268 268 269
247 237 233 237 241 238 237 239 237 238 241 244 247 254 248 254 250 243 237 237 242 252 262 270 278 283 288 291 295 298 303 306 306 306 307 307 302 296 291 281 275 272 270 270
251 244 236 237 240 246 247 239 237 237 238 241 247 250 255 255 251 243 241 241 246 254 263 271 276 281 285 290 294 298 301 305 305 305 305 305 304 302 297 291 284 278 277 276
257 244 239 240 241 241 245 246 245 241 241 245 248 251 255 256 245 239 240 242 250 259 264 270 276 280 286 291 294 297 300 303 304 304 303 300 298 297 295 293 288 285 283 281
255 244 245 241 240 243 244 239 240 242 241 244 245 251 254 248 246 242 244 248 252 256 263 270 275 282 287 291 294 296 299 301 302 301 299 297 295 294 293 291 289 288 286 286
242 253 239 248 238 236 240 243 241 245 245 243 246 247 252 246 239 238 244 246 251 259 264 271 276 282 287 291 294 295 299 300 302 301 298 296 293 288 292 292 291 290 289 289
230 241 238 232 239 250 246 240 239 236 243 241 243 246 239 236 239 247 249 251 254 260 266 273 279 285 290 293 295 296 300 302 303 304 301 300 297 294 284 291 292 294 292 290
229 231 230 225 231 237 241 242 240 241 247 241 238 236 234 234 241 245 243 250 254 262 270 277 282 286 291 295 295 297 300 301 303 305 302 301 302 299 295 292 294 296 294 292
223 223 228 234 239 247 247 249 226 234 253 239 239 235 230 236 246 237 243 251 258 265 271 280 285 289 294 296 295 298 300 301 302 304 302 302 303 302 301 298 297 297 298 297
222 214 222 227 236 245 237 236 236 245 251 245 233 225 232 229 228 236 248 252 258 266 276 283 286 290 294 296 297 299 301 301 301 303 304 305 304 304 304 303 301 302 301 300
237 223 221 223 228 230 234 240 236 239 241 237 233 222 216 224 236 242 248 255 264 272 279 283 286 289 294 298 299 300 303 304 304 304 304 305 305 305 305 304 304 303 304 304
239 229 225 224 228 230 231 235 231 229 227 216 218 217 231 236 239 246 254 260 269 276 280 281 284 289 294 297 300 302 303 304 305 305 305 306 306 306 306 305 306 306 305 304
241 219 218 218 216 215 222 232 231 225 226 224 223 229 233 237 247 256 262 268 272 273 277 282 286 289 293 296 299 302 304 305 305 305 306 307 307 307 307 306 306 305 304 303
236 214 215 215 214 228 233 226 226 228 232 230 228 233 243 250 256 265 266 264 269 272 277 282 286 292 295 298 300 302 304 305 306 306 307 307 307 307 306 306 306 305 304 304